Weather History for Dublin, Ireland

Change the Weather History Date:

Thursday, August 30, 2012

  Actual Average Record
Temperature  
Mean Temperature 53 °F -  
Max Temperature 62 °F 62 °F 73 °F (2005)
Min Temperature 44 °F 49 °F 37 °F (2010)
Degree Days  
Heating Degree Days 12    
Growing Degree Days 3 (Base 50)    
Moisture  
Dew Point 46 °F    
Average Humidity 77    
Maximum Humidity 100    
Minimum Humidity 51    
Precipitation  
Precipitation 0.00 in 0.09 in - ()
Sea Level Pressure  
Sea Level Pressure 30.15 in    
Wind  
Wind Speed 12 mph ()    
Max Wind Speed 22 mph    
Max Gust Speed 30 mph    
Visibility 6.7 miles    
Events Rain    
Averages and records for this station are not official NWS values.
T = Trace of Precipitation, MM = Missing Value Source: Averaged Metar Reports

Daily Weather History Graph

Daily Weather History Graph

Search for Another Location

Airport:

Trip Planner

Search our weather history database for the weather conditions in past years. The results will help you decide how hot, cold, wet, or windy it might be!

Date:

Astronomy

Aug. 30, 2012 Rise Set
Actual Time 6:31 AM IST 8:18 PM IST
Civil Twilight 5:54 AM IST 8:55 PM IST
Nautical Twilight 5:08 AM IST 9:41 PM IST
Astronomical Twilight 4:16 AM IST 10:32 PM IST
Moon 7:22 PM IST (8/30) 5:14 AM IST (8/30)
Length of Visible Light 15h 00m
Length of Day
13h 47m
Waxing Gibbous, 99% of the Moon is Illuminated
Aug 30
Waxing Gibbous
Aug 31
Full
Sep 8
Last Quarter
Sep 16
New
Sep 22
First Quarter

Hourly Weather History & Observations

Time (IST) Temp. Windchill Dew Point Humidity Pressure Visibility Wind Dir Wind Speed Gust Speed Precip Events Conditions
12:00 AM 51.8 °F - 51.8 °F 100% 29.74 in 6.2 mi WNW 9.2 mph - N/A   Mostly Cloudy
12:30 AM 53.6 °F - 51.8 °F 94% 29.77 in 6.2 mi NW 10.4 mph - N/A   Mostly Cloudy
1:00 AM 53 °F - 52 °F 95% 29.80 in 16 mi NW 11.2 mph - -   Partly Cloudy
1:00 AM 53.6 °F - 51.8 °F 94% 29.77 in 6.2 mi NW 12.7 mph - N/A   Scattered Clouds
1:30 AM 51.8 °F - 51.8 °F 100% 29.80 in 6.2 mi NW 12.7 mph - N/A   Scattered Clouds
2:00 AM 51.8 °F - 50.0 °F 94% 29.83 in 6.2 mi NW 12.7 mph - N/A   Partly Cloudy
3:00 AM 51.8 °F - 51.8 °F 100% 29.86 in 6.2 mi WNW 10.4 mph - N/A   Mostly Cloudy
3:30 AM 51.8 °F - 50.0 °F 94% 29.89 in 6.2 mi NW 13.8 mph - N/A   Scattered Clouds
4:00 AM 51.8 °F - 50.0 °F 94% 29.92 in 6.2 mi NW 11.5 mph - N/A   Scattered Clouds
4:30 AM 51.8 °F - 50.0 °F 94% 29.95 in 6.2 mi NW 12.7 mph - N/A   Scattered Clouds
5:30 AM 51.8 °F - 48.2 °F 88% 29.98 in 6.2 mi NNW 18.4 mph - N/A   Scattered Clouds
6:00 AM 51.8 °F - 48.2 °F 88% 30.01 in 6.2 mi NW 15.0 mph - N/A   Scattered Clouds
6:30 AM 51.8 °F - 48.2 °F 88% 30.01 in 6.2 mi NW 13.8 mph - N/A   Scattered Clouds
7:00 AM 50 °F - 45 °F 78% 30.07 in 19 mi NNW 15.7 mph - -   Partly Cloudy
7:00 AM 50.0 °F - 44.6 °F 82% 30.04 in 6.2 mi NW 13.8 mph - N/A   Scattered Clouds
7:30 AM 48.2 °F - 44.6 °F 87% 30.06 in 6.2 mi NW 11.5 mph - N/A   Partly Cloudy
8:00 AM 50.0 °F - 44.6 °F 82% 30.09 in 6.2 mi NW 12.7 mph - N/A   Partly Cloudy
8:30 AM 50.0 °F - 44.6 °F 82% 30.12 in 6.2 mi NW 13.8 mph - N/A   Partly Cloudy
9:00 AM 51.8 °F - 46.4 °F 82% 30.12 in 6.2 mi WNW 13.8 mph - N/A   Partly Cloudy
9:30 AM 51.8 °F - 44.6 °F 76% 30.15 in 6.2 mi NW 13.8 mph - N/A   Partly Cloudy
10:00 AM 53.6 °F - 44.6 °F 72% 30.15 in 6.2 mi NNW 19.6 mph - N/A   Partly Cloudy
10:30 AM 55.4 °F - 44.6 °F 67% 30.15 in 6.2 mi NNW 21.9 mph - N/A   Partly Cloudy
11:00 AM 55.4 °F - 41.0 °F 58% 30.18 in 6.2 mi NNW 18.4 mph - N/A   Partly Cloudy
11:30 AM 55.4 °F - 42.8 °F 63% 30.21 in 6.2 mi North 17.3 mph 28.8 mph N/A   Partly Cloudy
12:00 PM 59.0 °F - 41.0 °F 51% 30.21 in 6.2 mi North 18.4 mph 29.9 mph N/A   Scattered Clouds
12:30 PM 57.2 °F - 42.8 °F 59% 30.21 in 6.2 mi NNW 19.6 mph - N/A   Scattered Clouds
1:00 PM 58 °F - 45 °F 51% 30.24 in 44 mi NNW 15.7 mph - -   Mostly Cloudy
1:00 PM 57.2 °F - 42.8 °F 59% 30.21 in 6.2 mi NNW 16.1 mph - N/A   Mostly Cloudy
1:30 PM 59.0 °F - 44.6 °F 59% 30.24 in 6.2 mi NNW 16.1 mph - N/A   Mostly Cloudy
2:00 PM 59.0 °F - 44.6 °F 59% 30.24 in 6.2 mi NW 15.0 mph - N/A   Mostly Cloudy
2:30 PM 59.0 °F - 46.4 °F 63% 30.27 in 6.2 mi NNW 15.0 mph - N/A   Mostly Cloudy
3:00 PM 59.0 °F - 44.6 °F 59% 30.27 in 6.2 mi NNW 17.3 mph - N/A   Mostly Cloudy
3:30 PM 60.8 °F - 48.2 °F 63% 30.27 in 6.2 mi NNW 13.8 mph - N/A   Mostly Cloudy
4:00 PM 59.0 °F - 44.6 °F 59% 30.30 in 6.2 mi NNW 13.8 mph - N/A   Mostly Cloudy
4:30 PM 57.2 °F - 46.4 °F 67% 30.30 in 6.2 mi NNW 10.4 mph - N/A   Mostly Cloudy
5:00 PM 59.0 °F - 44.6 °F 59% 30.30 in 6.2 mi NW 11.5 mph - N/A   Mostly Cloudy
5:30 PM 59.0 °F - 46.4 °F 63% 30.30 in 6.2 mi WNW 12.7 mph - N/A   Mostly Cloudy
6:00 PM 59.0 °F - 46.4 °F 63% 30.30 in 6.2 mi NW 10.4 mph - N/A   Mostly Cloudy
6:30 PM 57.2 °F - 48.2 °F 72% 30.33 in 6.2 mi NW 8.1 mph - N/A   Mostly Cloudy
7:00 PM 57 °F - 48 °F 65% 30.35 in 37 mi WNW 6.7 mph - - Rain Light Rain Showers
7:00 PM 57.2 °F - 48.2 °F 72% 30.33 in 6.2 mi WNW 6.9 mph - N/A Rain Light Rain Showers
7:30 PM 57.2 °F - 48.2 °F 72% 30.33 in 6.2 mi West 5.8 mph - N/A   Mostly Cloudy
8:00 PM 57.2 °F - 50.0 °F 77% 30.36 in 6.2 mi West 8.1 mph - N/A   Mostly Cloudy
8:30 PM 53.6 °F - 46.4 °F 77% 30.36 in 6.2 mi WNW 8.1 mph - N/A   Mostly Cloudy
9:00 PM 50.0 °F - 44.6 °F 82% 30.36 in 6.2 mi WNW 5.8 mph - N/A   Scattered Clouds
9:30 PM 48.2 °F - 44.6 °F 87% 30.39 in 6.2 mi NW 6.9 mph - N/A   Scattered Clouds
10:00 PM 46.4 °F 42.9 °F 42.8 °F 87% 30.39 in 6.2 mi NW 6.9 mph - N/A   Scattered Clouds
10:30 PM 44.6 °F 40.7 °F 42.8 °F 93% 30.39 in 6.2 mi WNW 6.9 mph - N/A   Scattered Clouds
11:00 PM 44.6 °F 40.2 °F 42.8 °F 93% 30.39 in 6.2 mi WNW 8.1 mph - N/A   Mostly Cloudy
11:30 PM 48.2 °F - 42.8 °F 82% 30.39 in 6.2 mi West 11.5 mph - N/A   Mostly Cloudy